EHI
22 22 21 19 20 22 23 24 25 25 25 25 26 25 24 21 18 16 18 18 16 13 11 10 10 12 13 11 9 9 9 7 5 3 2 1 2 5 5 2 1 3 4
24 22 20 19 20 21 21 22 22 22 23 23 22 22 21 18 16 15 16 17 16 14 12 12 14 15 15 13 10 8 7 6 4 4 2 1 2 4 4 2 1 3 4
26 23 20 19 19 18 18 18 18 19 19 18 18 17 16 15 13 14 14 15 14 13 12 13 15 15 14 12 10 7 5 4 4 3 2 1 2 4 4 2 1 2 3
28 25 20 18 17 17 17 17 18 18 17 16 15 13 12 11 10 11 12 12 12 12 10 10 12 12 11 10 9 7 5 3 3 3 3 2 2 3 2 1 0 1 2
30 27 22 17 16 16 16 17 17 17 15 14 13 11 9 8 7 8 9 10 10 9 7 7 8 8 8 8 7 6 5 4 3 3 2 2 2 2 1 0 0 0 1
27 25 22 18 16 16 16 16 16 16 15 14 12 11 9 8 7 7 7 7 6 5 5 6 6 5 5 5 5 6 6 5 3 1 1 1 2 2 2 1 0 0 0
22 20 19 18 17 17 16 16 16 16 16 15 14 12 10 9 8 7 6 5 2 2 3 4 4 3 2 2 3 4 4 3 2 1 0 0 1 2 3 2 1 0 0
19 17 16 17 16 16 16 16 16 16 16 15 14 13 11 9 9 8 5 3 1 0 1 1 1 1 1 1 1 2 2 1 1 0 0 0 1 3 4 3 2 1 0
17 15 15 16 15 14 14 15 14 14 13 12 11 10 9 8 7 6 3 1 0 0 0 0 0 0 0 0 0 0 0 0 0 1 1 1 2 3 4 4 3 2 1
17 16 16 15 14 13 13 13 12 11 9 8 8 6 5 4 3 3 1 0 0 0 0 0 0 0 0 0 0 0 0 0 0 1 2 3 3 3 4 4 4 2 1
19 19 18 15 14 13 13 12 10 8 6 6 5 3 2 1 0 0 0 0 0 0 0 0 0 0 0 0 0 0 0 0 0 1 2 3 3 3 3 4 3 3 2
18 18 16 13 12 12 12 10 7 6 5 3 2 1 0 0 0 0 0 0 0 0 0 0 0 0 0 0 0 0 0 0 0 0 1 1 2 3 3 3 3 2 2
13 13 12 11 10 9 8 5 4 3 2 1 0 0 0 0 0 0 0 0 0 0 0 0 0 0 0 0 0 0 0 0 0 0 0 0 1 1 2 2 1 1 1
10 10 10 10 9 7 3 2 1 1 0 0 0 0 0 0 0 0 0 0 0 0 0 0 0 0 0 0 0 0 0 0 0 0 0 0 0 0 1 1 0 0 0
8 9 8 8 6 4 2 0 0 0 0 0 0 0 0 0 0 0 0 0 0 0 0 0 0 0 0 0 0 0 0 0 0 0 0 0 0 0 0 0 0 0 0
6 7 7 6 3 1 1 0 0 0 0 0 0 0 0 0 0 0 0 0 0 0 0 0 0 0 0 0 0 0 0 0 0 0 0 0 0 0 0 0 0 0 0
4 5 6 4 1 0 0 0 0 0 0 0 0 0 0 0 0 0 0 0 0 0 0 0 0 0 0 0 0 0 0 0 0 0 0 0 0 0 0 0 0 0 0
3 4 4 3 1 0 0 0 0 0 0 0 0 0 0 0 0 0 0 0 0 0 0 0 0 0 0 0 0 0 0 0 0 0 0 0 0 0 0 0 0 0 0
2 3 3 1 0 0 0 0 0 0 0 0 0 0 0 0 0 0 0 0 0 0 0 0 0 0 0 0 0 0 0 0 0 0 0 0 0 0 0 0 0 0 0
3 3 2 1 0 0 0 0 0 0 0 0 0 0 0 0 0 0 0 0 0 0 0 0 0 0 0 0 0 0 0 0 0 0 0 0 0 0 0 0 0 0 0
3 2 1 0 0 0 0 0 0 0 0 0 0 0 0 0 0 0 0 0 0 0 0 0 0 0 0 0 0 0 0 0 0 0 0 0 0 0 0 0 0 0 0
2 1 0 0 0 0 0 0 0 0 0 0 0 0 0 0 0 0 0 0 0 0 0 0 0 0 0 0 0 0 0 0 0 0 0 0 0 0 0 0 0 0 0
2 1 0 0 0 0 0 0 0 0 0 0 0 0 0 0 0 0 0 0 0 0 0 0 0 0 0 0 0 0 0 0 0 0 0 0 0 0 0 0 0 0 0
1 0 0 0 0 0 0 0 0 0 0 0 0 0 0 0 0 0 0 0 0 0 0 0 0 0 0 0 0 0 0 0 0 0 0 0 0 0 0 0 0 0 0
0 0 0 0 0 0 0 0 0 0 0 0 0 0 0 0 0 0 0 0 0 0 0 0 0 0 0 0 0 0 0 0 0 0 0 0 0 0 0 0 0 0 0
0 0 0 0 0 0 0 0 0 0 0 0 0 0 0 0 0 0 0 0 0 0 0 0 0 0 0 0 0 0 0 0 0 0 0 0 0 0 0 0 0 0 0
Wind_Speed
11 10 9 9 7 7 6 6 6 5 3 3 2 2 2 2 2 3 3 3 3 3 3 3 3 3 2 3 3 3 4 2 1 2 3 2 2 1 1 0 0 1 1
11 10 9 8 8 7 6 6 5 5 4 3 2 2 2 2 2 2 2 3 3 3 3 3 3 3 2 2 3 3 3 3 2 1 2 2 1 1 1 0 1 0 1
11 11 9 9 8 7 6 6 5 5 5 3 2 2 2 1 2 2 2 3 3 3 4 4 4 4 3 2 3 3 3 3 3 1 1 1 1 2 1 2 2 2 2
11 10 10 9 8 7 7 6 5 5 4 3 3 3 3 3 2 2 2 2 3 3 3 4 4 4 4 3 4 3 3 3 3 2 1 1 1 1 1 1 2 3 3
11 11 10 10 8 7 7 6 6 5 4 4 4 4 4 3 2 2 2 2 2 3 4 4 4 4 4 4 4 3 3 3 3 3 2 2 1 1 1 1 1 2 2
10 10 10 9 8 7 7 6 5 4 4 4 5 5 4 3 4 3 3 2 2 3 5 5 4 4 4 4 4 3 3 3 3 3 2 2 2 1 1 1 1 1 2
10 9 10 9 7 7 6 6 5 5 5 5 5 4 3 2 3 4 3 3 3 4 5 5 4 4 4 4 4 4 3 3 3 3 2 2 2 1 1 1 1 1 1
10 10 9 8 7 7 6 6 5 4 4 4 4 4 3 3 3 4 3 3 3 3 4 4 4 5 5 5 4 4 4 3 3 3 2 2 2 2 1 1 1 1 1
10 9 8 8 7 7 5 6 5 4 4 4 3 3 4 4 4 3 3 3 3 3 4 4 4 4 5 5 5 3 4 4 3 3 2 2 2 2 1 1 1 2 1
10 9 8 7 7 6 6 5 5 4 4 3 3 4 3 3 4 4 4 4 4 4 4 4 4 4 5 5 4 4 4 4 3 2 3 3 2 2 2 1 1 1 2
10 9 8 7 7 6 6 5 5 4 4 4 4 4 3 3 4 4 4 4 3 3 3 4 4 3 4 4 4 4 4 4 4 4 3 3 3 2 2 1 1 0 1
9 9 8 7 6 6 6 5 4 4 4 4 4 4 4 4 4 4 3 3 3 3 3 3 4 4 4 5 5 5 5 5 5 4 4 4 3 3 2 1 1 0 1
9 8 8 6 5 5 5 5 4 4 4 4 5 4 4 4 4 3 3 2 2 3 3 3 4 4 4 5 6 5 5 5 5 5 5 4 4 3 2 1 1 0 2
8 7 7 6 5 5 5 5 4 4 4 5 5 4 3 3 3 3 3 3 3 3 3 4 4 4 5 6 6 6 4 4 4 4 5 5 5 5 3 2 2 2 2
8 7 7 6 6 5 5 5 5 4 4 4 4 4 2 2 3 3 3 4 4 5 4 4 4 4 5 7 8 6 5 4 4 3 4 4 6 7 5 3 3 2 2
8 8 7 6 6 6 5 5 4 4 4 3 3 3 2 2 2 2 3 3 4 4 4 5 5 6 6 9 10 7 5 4 4 3 3 3 4 6 6 6 5 4 3
8 8 7 6 5 4 4 5 4 4 4 3 3 3 2 2 2 3 4 3 4 4 5 4 4 5 6 9 10 10 4 4 4 4 4 5 6 6 4 4 5 6 5
8 8 7 6 5 5 4 4 4 4 4 3 3 2 2 2 2 3 3 3 3 3 3 3 4 4 6 9 10 10 3 3 3 4 4 4 5 7 5 4 4 4 4
7 7 7 7 6 5 5 4 4 4 3 3 3 2 2 2 2 2 2 2 2 2 1 2 3 4 5 8 9 8 2 2 3 4 5 5 5 8 8 4 4 5 4
8 8 8 7 6 5 5 5 4 4 3 3 3 2 1 1 1 2 1 1 1 1 1 3 3 3 4 6 8 8 3 2 2 3 4 7 7 7 8 4 4 4 3
9 8 8 7 6 6 5 4 4 4 3 3 2 2 1 1 1 1 1 1 1 1 1 1 1 2 2 3 5 6 3 4 3 3 3 4 6 6 6 4 3 2 1
9 8 7 7 6 6 6 5 4 4 3 3 3 2 1 0 2 1 1 1 1 1 1 1 1 1 2 1 2 4 4 4 3 3 3 2 3 4 4 3 3 3 3
9 7 8 7 6 6 5 5 4 4 4 3 2 1 1 0 1 0 1 1 1 2 1 1 1 1 2 1 0 2 3 4 2 2 3 3 3 4 3 4 5 4 2
8 7 8 8 7 6 6 5 5 4 3 3 2 2 1 1 1 1 1 1 1 2 2 2 2 1 2 2 2 2 1 2 2 2 3 5 5 4 4 4 3 3 1
7 7 6 7 7 6 5 5 5 4 3 3 2 2 2 1 1 1 1 2 3 2 2 3 4 4 3 3 4 3 3 3 3 4 3 3 3 3 3 3 2 2 2
7 6 7 7 7 7 6 5 5 4 3 3 3 3 3 2 3 3 2 1 1 2 1 0 0 1 1 1 3 4 4 5 5 4 4 4 3 1 1 1 1 1 1
Wind_Direction
129 124 119 116 107 93 86 74 65 52 47 48 53 70 71 70 70 69 50 38 18 355 346 349 338 348 346 341 338 326 315 311 328 318 311 292 256 210 213 256 9 357 5
135 134 128 120 109 98 89 82 69 56 53 55 47 61 68 70 71 58 48 24 12 360 353 355 344 351 342 338 332 337 322 313 317 311 308 292 287 28 359 26 95 70 40
145 139 132 124 116 105 92 82 69 57 50 48 62 69 80 61 47 40 51 25 15 22 5 359 355 348 341 342 335 341 327 316 309 305 304 307 323 356 7 16 35 49 47
146 144 135 124 118 114 103 88 76 62 50 44 50 53 61 49 33 29 42 25 22 24 8 6 357 351 345 344 334 358 330 320 317 319 296 282 303 273 332 355 14 30 33
145 140 132 126 121 114 105 96 86 72 56 51 53 46 50 41 32 31 37 33 37 31 16 17 6 355 347 346 340 344 341 330 327 324 320 309 293 247 235 266 332 14 23
138 130 126 123 119 113 107 101 94 82 69 59 56 54 52 41 29 26 27 30 46 35 23 20 12 0 355 346 340 343 341 337 332 325 323 317 308 312 276 248 261 354 5
139 132 128 126 120 112 104 101 95 84 72 67 61 55 42 46 42 20 26 31 39 37 22 13 5 360 354 347 347 349 343 341 338 334 326 320 318 303 272 233 239 277 292
137 132 130 128 123 115 110 105 97 86 76 72 59 52 32 35 41 29 23 34 31 34 20 8 7 1 354 352 357 351 345 348 344 343 330 317 321 308 296 259 219 225 249
134 134 132 131 131 125 116 111 109 97 85 80 70 62 48 40 38 34 36 39 31 28 21 8 4 2 360 357 356 357 355 351 344 338 338 330 324 316 305 276 235 216 210
136 134 128 127 124 122 114 112 112 104 99 88 68 71 54 49 44 43 48 42 32 26 15 7 6 5 3 2 355 353 0 359 350 341 350 344 335 327 322 309 287 257 195
139 133 127 126 127 126 125 125 121 117 106 93 78 68 54 49 52 53 49 40 26 19 19 4 2 0 9 2 359 1 1 359 355 352 353 345 343 340 330 327 307 298 138
130 130 130 129 133 133 131 126 122 115 106 97 85 69 57 51 54 54 43 39 27 19 14 2 356 6 15 6 1 0 1 358 2 3 359 353 352 340 333 339 346 26 132
128 132 132 132 134 132 126 124 121 111 103 94 90 75 59 57 57 53 39 39 37 25 11 5 7 14 15 10 360 359 3 8 8 5 1 2 358 347 346 359 7 56 111
132 138 137 138 139 131 131 129 118 112 108 99 98 89 74 62 55 48 36 34 33 30 19 13 12 22 27 15 3 355 359 12 15 17 15 13 13 2 0 29 28 60 106
136 139 139 140 136 130 126 124 117 109 102 104 105 100 90 73 63 50 39 31 19 30 25 19 20 26 33 15 2 350 0 12 18 29 35 37 44 40 35 43 42 49 62
148 143 140 140 136 134 135 126 120 113 108 108 110 105 88 69 69 69 51 40 26 22 20 27 28 31 27 7 5 0 355 6 13 13 25 55 60 52 53 62 64 68 78
150 146 143 136 128 124 130 131 123 120 121 120 111 112 109 85 58 55 54 38 31 28 23 26 36 42 28 11 5 2 357 13 15 16 21 37 41 33 35 58 61 59 56
142 140 137 132 124 122 126 126 128 126 127 123 108 100 97 84 62 54 49 37 34 28 19 21 31 37 26 12 4 354 355 19 32 40 39 48 40 25 23 50 68 70 57
132 129 130 130 129 132 135 137 131 133 133 122 113 102 81 72 63 57 44 33 27 13 12 41 42 37 27 12 5 358 344 40 43 49 44 43 53 24 24 46 62 72 71
127 129 133 132 135 137 141 141 140 139 129 117 109 101 89 87 72 61 30 359 357 360 21 48 47 46 36 15 6 1 359 30 51 71 71 56 47 31 28 40 52 55 45
132 135 136 138 142 144 146 145 139 131 122 109 104 103 89 123 111 74 354 302 335 28 20 37 81 82 58 29 7 9 12 8 18 51 67 58 42 29 20 26 42 48 357
139 141 138 138 143 146 144 143 136 130 126 120 114 111 107 315 113 99 300 290 278 243 227 231 219 134 117 47 10 6 13 6 18 28 45 61 34 12 353 350 332 330 327
142 144 142 141 146 148 148 145 143 142 139 126 118 135 158 77 59 163 252 258 258 261 245 213 160 119 127 132 339 321 333 343 353 357 350 324 314 321 305 270 283 297 295
144 148 147 143 144 148 151 150 151 154 151 147 155 175 177 175 156 305 304 326 351 350 0 15 29 70 81 65 36 345 1 343 340 331 311 288 269 264 275 286 268 248 245
147 152 152 149 147 150 154 157 157 160 161 169 182 193 194 198 153 122 10 12 37 42 21 11 10 21 40 32 26 8 4 4 9 336 298 273 248 229 219 229 225 216 205
150 154 157 156 155 160 160 164 165 167 175 188 202 209 207 200 206 185 175 174 192 167 142 148 341 21 59 321 345 345 333 329 339 332 301 294 287 258 214 227 233 210 191